IBE952 LEMD-GCXO

Flight info

Callsign IBE952
Flight time N/A
Altitude 29000
Route CCS2X CCS DCT ELVAR DCT BAROK UN873 SAMAR SAMAR1L
Aircraft A346/H-SDE2E3FGHIJ3J4J5M1RWXY/LB1D1

Departure

Time N/A
Airport Adolfo Suárez Madrid–Barajas Airport (LEMD)

Arrival

Time 2026-05-07 12:33
Airport Tenerife Norte-Ciudad de La Laguna Airport (GCXO)
Time Latitude Longitude Altitude Speed Heading
2026-05-07 11:50 31.80867 -13.67213 29058 ft 444 kts 218°
2026-05-07 11:51 31.75994 -13.71230 29063 ft 444 kts 218°
2026-05-07 11:51 31.70945 -13.75395 29064 ft 444 kts 218°
2026-05-07 11:52 31.65881 -13.79567 29070 ft 444 kts 218°
2026-05-07 11:52 31.60820 -13.83731 29070 ft 444 kts 218°
2026-05-07 11:53 31.55752 -13.87882 29053 ft 444 kts 218°
2026-05-07 11:53 31.50689 -13.92027 29064 ft 443 kts 218°
2026-05-07 11:54 31.45633 -13.96163 29069 ft 443 kts 218°
2026-05-07 11:54 31.40610 -14.00265 29067 ft 443 kts 218°
2026-05-07 11:55 31.35547 -14.04392 29066 ft 443 kts 218°
2026-05-07 11:55 31.30486 -14.08513 29070 ft 443 kts 218°
2026-05-07 11:56 31.25436 -14.12656 29061 ft 444 kts 218°
2026-05-07 11:56 31.20374 -14.16804 29067 ft 444 kts 218°
2026-05-07 11:57 31.15307 -14.20945 29066 ft 444 kts 218°
2026-05-07 11:57 31.10241 -14.25075 29069 ft 443 kts 219°
2026-05-07 11:58 31.05188 -14.29195 29069 ft 443 kts 219°
2026-05-07 11:58 31.00133 -14.33311 29070 ft 443 kts 219°
2026-05-07 11:59 30.95111 -14.37391 29067 ft 444 kts 219°
2026-05-07 11:59 30.90037 -14.41510 29070 ft 444 kts 219°
2026-05-07 12:00 30.84957 -14.45619 29069 ft 444 kts 219°
2026-05-07 12:00 30.79878 -14.49714 29073 ft 444 kts 219°
2026-05-07 12:01 30.74800 -14.53804 29075 ft 444 kts 219°
2026-05-07 12:01 30.69721 -14.57887 29067 ft 444 kts 219°
2026-05-07 12:02 30.64615 -14.61986 29058 ft 447 kts 219°
2026-05-07 12:02 30.59500 -14.66089 29069 ft 448 kts 219°
2026-05-07 12:03 30.54377 -14.70193 29072 ft 448 kts 219°
2026-05-07 12:03 30.49247 -14.74297 29072 ft 447 kts 219°
2026-05-07 12:04 30.44127 -14.78387 29070 ft 447 kts 219°
2026-05-07 12:04 30.39043 -14.82443 29053 ft 447 kts 219°
2026-05-07 12:05 30.33959 -14.86495 29064 ft 448 kts 218°
2026-05-07 12:05 30.28871 -14.90543 29068 ft 448 kts 218°
2026-05-07 12:06 30.23804 -14.94569 29075 ft 448 kts 218°
2026-05-07 12:06 30.18794 -14.98544 29073 ft 447 kts 219°
2026-05-07 12:07 30.13684 -15.02595 29069 ft 447 kts 218°
2026-05-07 12:07 30.08567 -15.06646 29072 ft 447 kts 218°
2026-05-07 12:08 30.03425 -15.10711 29062 ft 449 kts 219°
2026-05-07 12:08 29.98266 -15.14785 29068 ft 449 kts 219°
2026-05-07 12:09 29.93147 -15.18823 29072 ft 449 kts 219°
2026-05-07 12:09 29.87936 -15.22927 29070 ft 449 kts 219°
2026-05-07 12:10 29.82775 -15.26988 29067 ft 449 kts 218°
2026-05-07 12:10 29.77611 -15.31044 29069 ft 449 kts 218°
2026-05-07 12:11 29.72480 -15.35070 29072 ft 449 kts 218°
2026-05-07 12:11 29.67317 -15.39115 29073 ft 449 kts 218°
2026-05-07 12:12 29.62151 -15.43158 29067 ft 449 kts 218°
2026-05-07 12:12 29.59583 -15.45165 28737 ft 445 kts 218°
2026-05-07 12:12 29.57014 -15.47174 27726 ft 448 kts 218°
2026-05-07 12:12 29.54424 -15.49201 26877 ft 450 kts 218°
2026-05-07 12:13 29.51852 -15.51208 26277 ft 444 kts 218°
2026-05-07 12:13 29.49306 -15.53191 25757 ft 439 kts 218°
2026-05-07 12:13 29.46798 -15.55143 25261 ft 432 kts 218°
2026-05-07 12:13 29.44331 -15.57063 24820 ft 425 kts 218°
2026-05-07 12:14 29.41898 -15.58955 24378 ft 419 kts 218°
2026-05-07 12:14 29.39498 -15.60821 23950 ft 414 kts 217°
2026-05-07 12:14 29.37128 -15.62663 23518 ft 409 kts 217°
2026-05-07 12:14 29.34791 -15.64478 23004 ft 403 kts 218°
2026-05-07 12:15 29.32481 -15.66270 22542 ft 398 kts 218°
2026-05-07 12:15 29.30197 -15.68045 22038 ft 395 kts 218°
2026-05-07 12:15 29.27937 -15.69801 21557 ft 391 kts 218°
2026-05-07 12:15 29.25700 -15.71536 21112 ft 387 kts 217°
2026-05-07 12:16 29.23508 -15.73235 20676 ft 383 kts 217°
2026-05-07 12:16 29.21308 -15.74940 20226 ft 380 kts 217°
2026-05-07 12:16 29.19129 -15.76628 19783 ft 377 kts 217°
2026-05-07 12:16 29.16965 -15.78302 19349 ft 374 kts 217°
2026-05-07 12:17 29.14811 -15.79968 18880 ft 372 kts 217°
2026-05-07 12:17 29.12672 -15.81622 18451 ft 370 kts 217°
2026-05-07 12:17 29.10543 -15.83267 17960 ft 368 kts 217°
2026-05-07 12:17 29.08427 -15.84900 17478 ft 366 kts 217°
2026-05-07 12:18 29.06320 -15.86527 17024 ft 364 kts 217°
2026-05-07 12:18 29.04227 -15.88141 16576 ft 362 kts 217°
2026-05-07 12:18 29.02175 -15.89723 16126 ft 361 kts 217°
2026-05-07 12:18 29.00098 -15.91323 15668 ft 359 kts 217°
2026-05-07 12:19 28.98031 -15.92915 15229 ft 358 kts 217°
2026-05-07 12:19 28.95967 -15.94505 14760 ft 358 kts 217°
2026-05-07 12:19 28.93918 -15.96081 14330 ft 357 kts 217°
2026-05-07 12:19 28.91876 -15.97651 13884 ft 357 kts 217°
2026-05-07 12:20 28.89823 -15.99230 13382 ft 356 kts 216°
2026-05-07 12:20 28.87776 -16.00802 12916 ft 354 kts 216°
2026-05-07 12:20 28.85734 -16.02370 12454 ft 353 kts 216°
2026-05-07 12:20 28.83702 -16.03930 12011 ft 351 kts 216°
2026-05-07 12:21 28.81684 -16.05477 11560 ft 349 kts 216°
2026-05-07 12:21 28.79670 -16.07021 11132 ft 348 kts 216°
2026-05-07 12:21 28.77678 -16.08546 10851 ft 340 kts 216°
2026-05-07 12:21 28.75751 -16.10019 10741 ft 326 kts 216°
2026-05-07 12:22 28.73904 -16.11431 10623 ft 314 kts 216°
2026-05-07 12:22 28.72123 -16.12792 10506 ft 302 kts 216°
2026-05-07 12:22 28.70413 -16.14098 10396 ft 290 kts 216°
2026-05-07 12:22 28.68772 -16.15353 10289 ft 279 kts 216°
2026-05-07 12:23 28.67186 -16.16564 10202 ft 271 kts 216°
2026-05-07 12:23 28.65634 -16.17751 10122 ft 267 kts 217°
2026-05-07 12:23 28.64109 -16.18918 9812 ft 269 kts 217°
2026-05-07 12:23 28.62553 -16.20107 9456 ft 269 kts 217°
2026-05-07 12:24 28.61001 -16.21292 9139 ft 268 kts 217°
2026-05-07 12:24 28.59455 -16.22472 8820 ft 267 kts 217°
2026-05-07 12:24 28.57913 -16.23647 8516 ft 266 kts 216°
2026-05-07 12:24 28.56223 -16.24501 8164 ft 272 kts 192°
2026-05-07 12:25 28.54338 -16.24355 7834 ft 276 kts 163°
2026-05-07 12:25 28.52712 -16.23220 7535 ft 277 kts 134°
2026-05-07 12:25 28.51716 -16.21363 7261 ft 276 kts 112°
2026-05-07 12:25 28.51059 -16.19322 6983 ft 274 kts 110°
2026-05-07 12:26 28.50427 -16.17282 6713 ft 272 kts 110°
2026-05-07 12:26 28.49782 -16.15254 6421 ft 272 kts 111°
2026-05-07 12:26 28.49135 -16.13279 6351 ft 260 kts 111°
2026-05-07 12:26 28.48505 -16.11387 6288 ft 249 kts 111°
2026-05-07 12:27 28.47880 -16.09552 6193 ft 249 kts 117°
2026-05-07 12:27 28.46788 -16.08095 6062 ft 242 kts 155°
2026-05-07 12:27 28.45194 -16.07714 5825 ft 235 kts 193°
2026-05-07 12:27 28.43686 -16.08319 5567 ft 229 kts 206°
2026-05-07 12:28 28.42228 -16.09060 5290 ft 229 kts 213°
2026-05-07 12:28 28.41122 -16.10297 4977 ft 222 kts 246°
2026-05-07 12:28 28.40852 -16.11975 4854 ft 216 kts 281°
2026-05-07 12:28 28.41301 -16.13601 4917 ft 217 kts 293°
2026-05-07 12:29 28.41919 -16.15170 4839 ft 218 kts 294°
2026-05-07 12:29 28.42511 -16.16748 4609 ft 215 kts 292°
2026-05-07 12:29 28.43044 -16.18290 4569 ft 203 kts 291°
2026-05-07 12:29 28.43528 -16.19755 4433 ft 195 kts 291°
2026-05-07 12:30 28.43993 -16.21181 4161 ft 190 kts 291°
2026-05-07 12:30 28.44444 -16.22562 3891 ft 182 kts 291°
2026-05-07 12:30 28.44871 -16.23866 3654 ft 169 kts 292°
2026-05-07 12:30 28.45138 -16.24680 3506 ft 160 kts 293°
2026-05-07 12:31 28.45516 -16.25830 3296 ft 153 kts 293°
2026-05-07 12:31 28.45891 -16.26965 3139 ft 153 kts 294°
2026-05-07 12:31 28.46265 -16.28103 2960 ft 154 kts 293°
2026-05-07 12:31 28.46647 -16.29241 2753 ft 154 kts 293°
2026-05-07 12:32 28.47025 -16.30376 2499 ft 153 kts 291°
2026-05-07 12:32 28.47375 -16.31501 2309 ft 149 kts 292°
2026-05-07 12:32 28.47745 -16.32593 2072 ft 146 kts 291°
2026-05-07 12:32 28.48076 -16.33585 2051 ft 112 kts 290°
2026-05-07 12:33 28.48413 -16.34545 2073 ft 40 kts 309°
2026-05-07 12:33 28.48545 -16.34731 2082 ft 16 kts 308°
2026-05-07 12:33 28.48586 -16.34790 2085 ft 5 kts 308°
2026-05-07 12:34 28.48600 -16.34824 2085 ft 4 kts 290°
2026-05-07 12:34 28.48607 -16.34841 2088 ft 1 kts 309°
2026-05-07 12:34 28.48608 -16.34842 2088 ft 0 kts 319°
2026-05-07 12:34 28.48609 -16.34842 2088 ft 1 kts 324°
2026-05-07 12:35 28.48619 -16.34839 2088 ft 3 kts 52°
2026-05-07 12:35 28.48609 -16.34817 2085 ft 6 kts 131°
2026-05-07 12:35 28.48572 -16.34727 2082 ft 13 kts 111°
2026-05-07 12:35 28.48540 -16.34628 2078 ft 16 kts 110°
2026-05-07 12:36 28.48525 -16.34529 2073 ft 12 kts 53°
2026-05-07 12:36 28.48590 -16.34488 2072 ft 7 kts 20°
2026-05-07 12:36 28.48600 -16.34484 2072 ft 0 kts 20°
2026-05-07 12:38 28.47531 -16.31966 2200 ft 0 kts 292°
2026-05-07 12:38 28.47873 -16.32977 2043 ft 0 kts 291°
2026-05-07 12:39 28.47214 -16.30988 2381 ft 0 kts 291°
2026-05-07 12:39 28.47575 -16.32093 2161 ft 0 kts 292°
2026-05-07 12:39 28.47936 -16.33164 2044 ft 0 kts 291°
2026-05-07 12:39 28.48206 -16.33974 2059 ft 0 kts 291°
2026-05-07 12:40 28.48353 -16.34410 2071 ft 0 kts 290°
2026-05-07 12:40 28.47775 -16.32681 2062 ft 0 kts 291°
2026-05-07 12:40 28.48098 -16.33650 2050 ft 0 kts 291°
2026-05-07 12:40 28.48299 -16.34249 2066 ft 0 kts 291°
2026-05-07 12:41 28.47603 -16.32175 2148 ft 0 kts 292°
2026-05-07 12:41 28.47960 -16.33236 2042 ft 0 kts 291°
2026-05-07 12:41 28.48219 -16.34011 2059 ft 0 kts 291°
2026-05-07 12:41 28.48359 -16.34431 2072 ft 0 kts 291°
2026-05-07 12:42 28.48508 -16.34677 2079 ft 0 kts 308°
2026-05-07 12:42 28.46153 -16.27760 3135 ft 0 kts 293°
2026-05-07 12:42 28.46976 -16.30220 2526 ft 0 kts 291°
2026-05-07 12:42 28.47327 -16.31350 2330 ft 0 kts 291°
2026-05-07 12:43 28.47695 -16.32444 2094 ft 0 kts 291°
2026-05-07 12:43 28.48038 -16.33467 2046 ft 0 kts 290°
2026-05-07 12:43 28.47403 -16.31585 2284 ft 0 kts 292°
2026-05-07 12:43 28.47773 -16.32675 2062 ft 0 kts 291°
2026-05-07 12:44 28.48097 -16.33646 2049 ft 0 kts 291°
2026-05-07 12:44 28.48600 -16.34484 2072 ft 0 kts 20°